Powrót do katalogu

YAOGAN 25C

AktywnyMilitariaLEO
NORAD 40340·PAYLOAD·🇨🇳 China

Wystrzelony Dec 10, 2014 z Jiuquan Satellite Launch Center

Loading…

Następne Przeloty (najbliższe 24 godziny)

TLE

ŚwieżeSource: Space-Track

Epoka: Sep 14, 2026, 15:07 UTC

1 40340U 14080C   26257.62999118 -.00000119  00000-0 -31023-4 0  9997
2 40340  63.3840  80.8400 0374751  10.1003 350.7290 13.45355663577780

Śledź YAOGAN 25C w czasie rzeczywistym z AllMySat

Download on the App Store